Location: Newark
(50.8964°N, 1.4048°W)
Time: 01:52:23
(UTC+00:00)

N. Korean satellite - Pass Details

Date: 30 January 2020
Orbit: 456 x 505 km, 97.2° (Epoch: 25 February)

Event Time Altitude Azimuth Distance (km) Brightness Sun altitude
Rises 17:20:47 0° 182° (S) 2,465 10.5 -4.9°
Reaches altitude 10° 17:22:52 10° 189° (S) 1,599 9.6 -5.2°
Maximum altitude 17:26:08 42° 262° (W) 676 8.0 -5.6°
Drops below altitude 10° 17:29:28 10° 334° (NNW) 1,628 9.3 -6.1°
Sets 17:31:37 0° 342° (NNW) 2,516 10.2 -6.5°
